Location: Mary A Oil Field
(38.5606°N, 98.9545°W)
Time: 13:07:18
(UTC+00:00)

YAOGAN 1 - Pass Details

Date: 20 January 2020
Orbit: 619 x 621 km, 98.0° (Epoch: 16 February)

Event Time Altitude Azimuth Distance (km) Brightness Sun altitude
Rises 01:50:36 0° 190° (S) 2,882 6.2 -24.7°
Reaches altitude 10° 01:52:59 10° 202° (SSW) 1,981 5.5 -25.2°
Maximum altitude 01:56:47 30° 263° (W) 1,123 4.5 -25.9°
Drops below altitude 10° 02:00:36 10° 325° (NW) 1,993 5.5 -26.7°
Sets 02:03:01 0° 336° (NNW) 2,904 6.2 -27.1°
